�N����,����,�~����,�C��,���x,�C��,����,���ϕ���,�ő�u�ԕ���,�ő厞����,���˗�,�I�_���x,�n�����x,�ő啗���N��,DTYPE
"16/06/11","00:10",0.0,20.1,87.5,1009.3,307.2,0.8,1.0,325.9,0.00,18.0,22.9,"00:01:52",1
"16/06/11","00:20",0.0,20.2,87.4,1010.0,300.1,0.6,1.1,303.4,0.00,18.1,22.9,"00:10:24",1
"16/06/11","00:30",0.0,20.5,87.0,1009.7,301.8,0.7,1.3,337.7,0.00,18.3,22.9,"00:20:56",1
"16/06/11","00:40",0.0,20.8,87.0,1009.7,302.7,0.8,1.6,336.2,0.00,18.6,22.8,"00:30:02",1
"16/06/11","00:50",0.0,21.0,86.5,1009.5,307.2,1.1,1.6,333.3,0.00,18.7,22.7,"00:40:08",1
"16/06/11","01:00",0.0,21.0,86.2,1009.5,298.7,0.8,1.1,311.8,0.00,18.6,22.9,"00:55:12",1
"16/06/11","01:10",0.0,21.1,85.6,1009.7,295.1,0.8,1.1,304.2,0.00,18.6,22.8,"01:02:16",1
"16/06/11","01:20",0.0,21.1,84.7,1009.5,301.9,0.8,1.6,332.3,0.00,18.5,22.7,"01:15:28",1
"16/06/11","01:30",0.0,21.2,84.2,1009.3,302.3,0.7,1.0,319.6,0.00,18.5,22.7,"01:24:48",1
"16/06/11","01:40",0.0,21.2,84.2,1009.5,299.3,1.0,1.4,321.2,0.00,18.5,22.6,"01:38:00",1
"16/06/11","01:50",0.0,21.2,84.0,1009.3,299.3,0.8,1.2,307.6,0.00,18.4,22.8,"01:46:40",1
"16/06/11","02:00",0.0,21.2,84.5,1009.3,321.9,1.1,2.0,342.2,0.00,18.5,22.6,"01:58:00",1
"16/06/11","02:10",0.0,21.1,85.0,1009.3,319.7,1.1,1.7,355.5,0.00,18.5,22.5,"02:00:08",1
"16/06/11","02:20",0.0,20.7,85.9,1009.5,288.1,1.0,1.1,270.6,0.00,18.3,22.5,"02:16:08",1
"16/06/11","02:30",0.0,20.5,86.7,1009.5,326.4,1.1,1.8,337.1,0.00,18.2,22.3,"02:28:08",1
"16/06/11","02:40",0.0,20.4,87.3,1009.5,304.0,0.8,1.8,337.0,0.00,18.3,22.2,"02:30:02",1
"16/06/11","02:50",0.0,20.2,87.7,1009.5,325.8,1.2,1.9,335.0,0.00,18.1,22.4,"02:49:36",1
"16/06/11","03:00",0.0,20.2,88.0,1009.7,322.5,1.2,1.7,316.6,0.00,18.2,22.2,"02:50:08",1
"16/06/11","03:10",0.0,20.1,88.4,1009.3,331.5,1.2,2.0,340.3,0.00,18.2,22.3,"03:05:28",1
"16/06/11","03:20",0.0,20.2,88.2,1009.7,327.7,1.2,1.8,332.9,0.00,18.2,22.1,"03:11:28",1
"16/06/11","03:30",0.0,20.0,88.4,1009.5,308.2,1.0,1.3,332.4,0.00,18.1,21.9,"03:29:52",1
"16/06/11","03:40",0.0,19.9,88.7,1009.7,312.8,1.1,1.6,327.3,0.00,18.0,22.1,"03:30:48",1
"16/06/11","03:50",0.0,19.8,89.5,1010.0,312.9,1.0,1.7,332.4,0.00,18.1,22.2,"03:40:02",1
"16/06/11","04:00",0.0,19.8,89.7,1010.0,308.8,1.0,1.3,329.7,0.00,18.1,21.9,"03:50:24",1
"16/06/11","04:10",0.0,19.5,89.6,1009.7,298.5,0.8,1.3,317.8,0.00,17.8,21.8,"04:01:04",1
"16/06/11","04:20",0.0,19.4,90.2,1009.7,298.5,1.0,1.2,323.3,0.00,17.8,22.0,"04:19:12",1
"16/06/11","04:30",0.0,19.3,90.6,1010.0,303.6,1.0,1.3,317.7,0.00,17.8,21.9,"04:21:20",1
"16/06/11","04:40",0.0,19.3,90.9,1009.7,317.4,1.1,1.3,319.4,0.00,17.8,21.7,"04:31:52",1
"16/06/11","04:50",0.0,19.3,91.1,1009.7,297.1,0.8,1.1,318.6,0.00,17.9,21.7,"04:41:36",1
"16/06/11","05:00",0.0,19.2,91.5,1009.5,299.4,0.8,1.1,309.3,0.00,17.8,22.0,"04:54:48",1
"16/06/11","05:10",0.0,19.2,91.8,1010.0,304.3,1.0,1.3,309.7,0.00,17.9,21.8,"05:09:44",1
"16/06/11","05:20",0.0,19.3,91.7,1009.7,306.0,0.8,1.3,308.9,0.00,18.0,21.9,"05:10:48",1
"16/06/11","05:30",0.0,19.5,91.3,1010.0,307.8,0.7,1.3,315.6,0.00,18.1,21.7,"05:23:36",1
"16/06/11","05:40",0.0,19.7,90.8,1010.0,290.5,0.7,1.0,316.0,0.00,18.2,21.6,"05:39:12",1
"16/06/11","05:50",0.0,20.0,90.3,1010.4,305.8,0.6,1.1,321.7,0.00,18.4,21.6,"05:42:00",1
"16/06/11","06:00",0.0,20.2,89.9,1010.7,309.4,1.0,1.3,323.0,0.02,18.5,21.8,"05:58:16",1
"16/06/11","06:10",0.0,20.9,88.8,1010.4,326.0,1.0,1.6,319.3,0.04,19.0,21.7,"06:04:32",1
"16/06/11","06:20",0.0,21.6,87.3,1010.4,336.2,1.0,1.3,333.3,0.07,19.4,21.7,"06:14:24",1
"16/06/11","06:30",0.0,22.7,82.2,1010.4,355.3,0.5,1.0,1.7,0.11,19.5,21.6,"06:26:32",1
"16/06/11","06:40",0.0,23.6,78.9,1010.2,317.7,0.2,0.9,337.0,0.14,19.8,21.7,"06:35:12",1
"16/06/11","06:50",0.0,23.9,76.3,1010.2,262.3,0.5,1.1,327.0,0.13,19.5,22.1,"06:49:28",1
"16/06/11","07:00",0.0,24.2,73.7,1010.4,107.7,0.6,1.7,132.4,0.12,19.2,22.2,"06:56:56",1
"16/06/11","07:10",0.0,24.6,75.1,1010.2,142.2,0.6,2.1,125.6,0.16,19.9,22.2,"07:05:20",1
"16/06/11","07:20",0.0,24.5,72.9,1010.4,152.7,1.1,2.5,128.0,0.17,19.4,22.5,"07:14:56",1
"16/06/11","07:30",0.0,24.3,75.6,1010.4,164.1,0.6,1.8,187.0,0.13,19.8,22.3,"07:24:00",1
"16/06/11","07:40",0.0,24.4,72.6,1009.7,144.2,1.1,2.1,142.0,0.18,19.2,22.7,"07:37:44",1
"16/06/11","07:50",0.0,25.0,71.5,1009.7,145.8,0.5,1.6,114.7,0.18,19.5,22.7,"07:49:52",1
"16/06/11","08:00",0.0,24.5,71.7,1009.5,131.6,0.8,2.0,138.4,0.15,19.1,23.0,"07:53:28",1
"16/06/11","08:10",0.0,25.1,71.4,1009.7,169.3,1.3,2.8,194.6,0.22,19.6,23.0,"08:08:32",1
"16/06/11","08:20",0.0,25.6,70.6,1009.3,134.1,1.0,2.4,122.8,0.25,19.9,23.1,"08:19:20",1
"16/06/11","08:30",0.0,25.9,67.2,1009.3,100.6,1.2,2.9,158.3,0.32,19.4,23.3,"08:20:32",1
"16/06/11","08:40",0.0,25.7,68.3,1009.0,103.7,0.7,2.4,56.9,0.22,19.5,23.4,"08:31:20",1
"16/06/11","08:50",0.0,25.0,69.3,1009.0,160.7,1.3,3.5,149.9,0.15,19.0,23.6,"08:42:16",1
"16/06/11","09:00",0.0,25.0,69.0,1009.0,168.4,1.2,2.4,169.8,0.15,19.0,23.6,"08:57:20",1
"16/06/11","09:10",0.0,25.4,67.5,1008.8,128.5,1.0,2.4,133.2,0.18,19.0,23.5,"09:01:28",1
"16/06/11","09:20",0.0,25.6,68.2,1009.0,133.4,0.7,2.6,135.3,0.18,19.3,23.7,"09:18:16",1
"16/06/11","09:30",0.0,26.1,66.5,1009.0,136.9,0.7,1.9,127.5,0.22,19.4,24.0,"09:27:12",1
"16/06/11","09:40",0.0,26.8,64.1,1008.6,67.9,0.8,2.6,353.9,0.31,19.5,24.2,"09:36:16",1
"16/06/11","09:50",0.0,27.4,63.2,1008.6,74.4,0.7,2.6,11.7,0.35,19.8,24.2,"09:47:04",1
"16/06/11","10:00",0.0,27.4,59.7,1008.8,169.2,1.2,2.7,216.6,0.46,18.9,24.5,"09:57:28",1
"16/06/11","10:10",0.0,27.4,61.8,1009.5,135.8,0.6,2.9,145.4,0.31,19.5,24.4,"10:02:32",1
"16/06/11","10:20",0.0,27.2,63.5,1009.5,140.8,0.8,2.7,179.5,0.23,19.7,24.7,"10:13:44",1
"16/06/11","10:30",0.0,26.6,63.0,1009.0,128.5,0.8,2.0,122.5,0.17,19.0,25.0,"10:28:08",1
"16/06/11","10:40",0.0,27.4,64.1,1008.8,137.8,0.7,2.7,127.2,0.24,20.1,24.9,"10:33:12",1
"16/06/11","10:50",0.0,28.7,59.4,1009.0,50.9,1.2,2.8,155.5,0.53,20.0,25.2,"10:42:16",1
"16/06/11","11:00",0.0,28.6,58.1,1009.5,117.8,0.8,2.1,189.4,0.46,19.6,25.5,"10:50:16",1
"16/06/11","11:10",0.0,28.3,56.0,1009.5,80.7,1.1,2.7,8.5,0.41,18.7,25.7,"11:09:28",1
"16/06/11","11:20",0.0,28.1,56.8,1009.3,54.7,0.8,2.2,94.8,0.31,18.8,26.0,"11:18:48",1
"16/06/11","11:30",0.0,28.8,56.4,1009.0,137.0,1.0,3.3,168.6,0.37,19.3,26.1,"11:25:12",1
"16/06/11","11:40",0.0,29.3,54.5,1009.5,91.4,1.2,2.9,67.5,0.60,19.2,26.2,"11:36:24",1
"16/06/11","11:50",0.0,27.9,60.5,1009.3,125.5,1.1,2.9,154.4,0.25,19.6,26.4,"11:48:56",1
"16/06/11","12:00",0.0,28.3,56.8,1008.8,70.3,0.7,2.1,349.5,0.27,19.0,26.3,"11:58:24",1
"16/06/11","12:10",0.0,28.7,55.0,1008.8,29.2,1.2,2.7,357.9,0.34,18.8,26.4,"12:08:32",1
"16/06/11","12:20",0.0,28.2,56.6,1008.1,162.4,1.0,2.1,14.4,0.23,18.8,26.6,"12:10:48",1
"16/06/11","12:30",0.0,29.2,54.2,1008.6,158.7,1.2,2.9,224.5,0.39,19.0,26.6,"12:26:48",1
"16/06/11","12:40",0.0,29.1,53.4,1008.3,189.2,1.3,3.1,199.5,0.38,18.7,26.7,"12:38:00",1
"16/06/11","12:50",0.0,29.0,53.9,1008.1,159.2,1.3,2.5,204.7,0.31,18.8,26.7,"12:40:56",1
"16/06/11","13:00",0.0,28.5,55.0,1007.6,74.0,1.1,2.5,151.2,0.22,18.6,26.6,"12:54:48",1
"16/06/11","13:10",0.0,28.5,56.9,1007.8,64.9,0.8,2.8,53.8,0.18,19.2,26.8,"13:07:04",1
"16/06/11","13:20",0.0,29.0,55.4,1007.6,111.6,0.7,2.2,116.5,0.26,19.2,26.8,"13:14:48",1
"16/06/11","13:30",0.0,29.6,54.4,1007.6,111.2,0.7,1.8,76.9,0.36,19.5,26.6,"13:21:20",1
"16/06/11","13:40",0.0,29.6,56.3,1008.1,147.4,1.2,3.2,124.1,0.41,20.0,26.6,"13:35:36",1
"16/06/11","13:50",0.0,30.2,52.2,1008.1,147.0,1.3,2.6,145.0,0.42,19.4,26.9,"13:41:44",1
"16/06/11","14:00",0.0,28.9,55.5,1008.3,146.1,1.5,3.7,188.6,0.21,19.1,26.8,"13:59:12",1
"16/06/11","14:10",0.0,29.3,55.6,1007.8,135.3,1.2,2.8,144.1,0.30,19.5,26.9,"14:05:28",1
"16/06/11","14:20",0.0,28.8,55.3,1007.6,125.1,0.7,2.2,157.2,0.15,19.0,26.7,"14:19:44",1
"16/06/11","14:30",0.0,29.2,55.0,1007.1,149.0,1.5,2.9,126.3,0.25,19.3,26.8,"14:28:24",1
"16/06/11","14:40",0.0,29.8,51.9,1007.1,174.7,1.7,3.4,219.5,0.29,18.9,26.9,"14:34:32",1
"16/06/11","14:50",0.0,29.6,53.2,1006.7,187.1,1.8,4.0,225.2,0.26,19.1,26.7,"14:42:40",1
"16/06/11","15:00",0.0,29.1,53.3,1006.9,126.2,1.2,3.4,85.9,0.20,18.7,26.9,"14:50:02",1
"16/06/11","15:10",0.0,29.7,54.4,1006.4,88.0,1.0,2.7,359.6,0.21,19.6,26.6,"15:00:56",1
"16/06/11","15:20",0.0,28.6,55.6,1006.7,138.7,1.3,3.4,143.6,0.11,18.9,26.8,"15:12:08",1
"16/06/11","15:30",0.0,29.4,53.5,1006.2,111.6,0.7,2.1,141.3,0.18,19.0,26.8,"15:22:16",1
"16/06/11","15:40",0.0,29.8,53.3,1006.4,76.9,1.2,2.8,70.0,0.25,19.3,26.8,"15:34:08",1
"16/06/11","15:50",0.0,29.2,54.3,1006.2,100.8,1.0,2.1,71.3,0.14,19.1,26.8,"15:41:12",1
"16/06/11","16:00",0.0,29.1,54.4,1006.0,40.0,1.2,2.5,34.1,0.13,19.0,26.6,"15:53:28",1
"16/06/11","16:10",0.0,29.8,52.7,1006.0,79.5,0.7,2.4,358.4,0.22,19.1,26.7,"16:09:28",1
"16/06/11","16:20",0.0,29.6,53.7,1006.2,27.8,1.1,2.7,9.5,0.18,19.3,26.4,"16:10:24",1
"16/06/11","16:30",0.0,29.4,53.4,1006.0,104.1,0.8,1.9,114.1,0.10,19.0,26.6,"16:28:16",1
"16/06/11","16:40",0.0,29.0,54.8,1006.0,106.1,1.1,2.5,4.2,0.06,19.0,26.5,"16:38:00",1
"16/06/11","16:50",0.0,28.9,54.4,1005.5,86.4,1.0,2.6,116.8,0.07,18.8,26.7,"16:41:36",1
"16/06/11","17:00",0.0,29.0,55.1,1005.2,92.3,0.8,1.9,71.3,0.07,19.1,26.4,"16:50:48",1
"16/06/11","17:10",0.0,28.9,55.2,1005.2,88.1,0.8,2.6,103.0,0.07,19.1,26.4,"17:07:28",1
"16/06/11","17:20",0.0,28.9,56.0,1005.5,102.4,1.0,2.5,72.2,0.08,19.3,26.2,"17:18:08",1
"16/06/11","17:30",0.0,28.6,55.9,1005.2,92.3,1.1,3.1,140.8,0.06,19.0,26.2,"17:26:32",1
"16/06/11","17:40",0.0,28.2,56.5,1005.0,96.0,1.1,2.5,136.9,0.03,18.8,26.1,"17:30:16",1
"16/06/11","17:50",0.0,27.9,57.7,1005.5,59.3,0.7,2.1,6.1,0.00,18.8,26.1,"17:45:04",1
"16/06/11","18:00",0.0,27.7,58.9,1005.5,36.8,0.7,2.0,40.5,0.01,19.0,26.0,"17:58:48",1
"16/06/11","18:10",0.0,27.6,59.7,1006.0,40.8,1.0,2.2,11.7,0.00,19.1,25.8,"18:01:20",1
"16/06/11","18:20",0.0,27.4,60.0,1005.7,94.2,0.8,2.0,102.6,0.00,19.0,25.6,"18:19:44",1
"16/06/11","18:30",0.0,27.2,60.6,1006.0,135.4,0.8,3.1,124.4,0.00,19.0,25.9,"18:27:12",1
"16/06/11","18:40",0.0,27.1,62.2,1006.2,165.9,1.5,3.2,231.9,0.00,19.3,25.5,"18:38:00",1
"16/06/11","18:50",0.0,27.0,62.8,1006.4,166.8,1.2,2.4,190.1,0.00,19.3,25.7,"18:47:36",1
"16/06/11","19:00",0.0,26.8,63.1,1006.4,155.1,1.1,2.6,138.2,0.00,19.2,25.5,"18:54:32",1
"16/06/11","19:10",0.0,26.6,64.2,1006.4,180.1,0.8,1.9,200.0,0.00,19.3,25.4,"19:06:56",1
"16/06/11","19:20",0.0,26.4,64.6,1006.4,183.0,1.1,2.4,200.4,0.00,19.2,25.2,"19:15:36",1
"16/06/11","19:30",0.0,26.2,65.1,1006.9,183.9,1.6,3.5,191.5,0.00,19.2,25.2,"19:21:28",1
"16/06/11","19:40",0.0,26.0,65.7,1006.9,166.5,0.8,2.0,212.5,0.00,19.1,25.0,"19:32:40",1
"16/06/11","19:50",0.0,25.8,66.6,1007.1,172.6,0.8,1.4,225.7,0.00,19.2,25.0,"19:43:36",1
"16/06/11","20:00",0.0,25.6,67.0,1007.1,150.4,1.0,1.8,164.7,0.00,19.1,24.9,"19:58:08",1
"16/06/11","20:10",0.0,25.6,67.3,1007.4,150.3,0.7,1.8,189.5,0.00,19.1,24.8,"20:05:36",1
"16/06/11","20:20",0.0,25.6,66.3,1007.1,113.4,0.6,2.2,118.4,0.00,18.9,24.8,"20:11:36",1
"16/06/11","20:30",0.0,25.3,66.7,1007.1,91.8,0.5,1.4,85.3,0.00,18.7,24.7,"20:26:08",1
"16/06/11","20:40",0.0,25.1,67.6,1007.4,119.4,0.3,1.3,93.0,0.00,18.7,24.6,"20:31:28",1
"16/06/11","20:50",0.0,25.0,67.9,1006.9,128.8,0.5,1.4,153.3,0.00,18.7,24.4,"20:44:16",1
"16/06/11","21:00",0.0,24.9,68.2,1007.6,203.6,0.3,0.9,134.0,0.00,18.7,24.5,"20:52:48",1
"16/06/11","21:10",0.0,24.9,68.2,1007.6,86.5,0.5,1.6,110.8,0.00,18.7,24.4,"21:07:20",1
"16/06/11","21:20",0.0,24.8,68.4,1007.6,72.3,0.6,1.4,188.1,0.00,18.6,24.4,"21:10:32",1
"16/06/11","21:30",0.0,24.7,68.8,1007.4,66.8,0.2,1.1,114.1,0.00,18.6,24.4,"21:29:52",1
"16/06/11","21:40",0.0,24.6,68.9,1007.8,356.0,0.3,1.4,10.7,0.00,18.6,24.3,"21:37:36",1
"16/06/11","21:50",0.0,24.6,68.4,1007.8,10.8,0.6,1.7,0.9,0.00,18.4,24.1,"21:43:28",1
"16/06/11","22:00",0.0,24.6,69.2,1008.1,339.1,0.3,1.1,339.7,0.00,18.6,24.1,"21:54:32",1
"16/06/11","22:10",0.0,24.4,69.0,1007.6,128.1,0.2,1.4,97.3,0.00,18.4,24.1,"22:02:08",1
"16/06/11","22:20",0.0,24.2,70.3,1007.8,64.2,0.1,0.8,100.4,0.00,18.5,24.0,"22:15:36",1
"16/06/11","22:30",0.0,24.1,70.1,1007.8,41.8,0.3,1.1,78.9,0.00,18.4,24.0,"22:26:24",1
"16/06/11","22:40",0.0,24.2,71.3,1007.6,327.3,0.6,1.2,342.2,0.00,18.7,23.8,"22:39:04",1
"16/06/11","22:50",0.0,24.0,72.5,1007.8,312.7,0.6,1.2,316.7,0.00,18.8,23.8,"22:46:00",1
"16/06/11","23:00",0.0,24.0,71.5,1007.8,10.1,0.6,1.4,342.4,0.00,18.6,23.9,"22:59:12",1
"16/06/11","23:10",0.0,24.0,70.4,1008.1,359.9,0.3,1.4,336.2,0.00,18.3,23.7,"23:00:32",1
"16/06/11","23:20",0.0,24.1,70.7,1007.8,348.4,0.7,2.1,8.4,0.00,18.5,23.8,"23:13:44",1
"16/06/11","23:30",0.0,24.0,69.9,1008.1,357.6,0.3,1.4,109.5,0.00,18.2,23.7,"23:24:32",1
"16/06/11","23:40",0.0,23.9,69.9,1007.8,70.2,0.6,1.2,342.6,0.00,18.1,23.5,"23:31:44",1
"16/06/11","23:50",0.0,23.7,70.4,1007.8,48.4,0.5,2.2,32.2,0.00,18.0,23.7,"23:47:36",1
"16/06/11","24:00",0.0,23.6,70.5,1007.8,350.7,0.6,1.7,76.0,0.00,18.0,23.7,"23:53:12",1
